Regional Weather Roundup
Issued by NWS Pendleton, OR

Home | Current Version | Previous Version | Text Only | Print | Product List | Glossary On
Versions: 1 2 3 4 5 6 7 8 9 10 11 12 13 14 15 16 17 18 19 20 21 22 23 24 25 26 27 28 29 30 31 32 33 34 35 36 37 38 39 40 41 42 43 44 45 46 47 48 49 50
000
ASUS46 KPDT 232325
RWRPDT
PENDLETON REGIONAL WEATHER ROUNDUP
NATIONAL WEATHER SERVICE PENDLETON OREGON
400 PM PDT TUE SEP 23 2014

NOTE: FAIR INDICATES FEW OR NO CLOUDS BELOW 12,000 FEET WITH NO
SIGNIFICANT WEATHER AND/OR OBSTRUCTIONS TO VISIBILITY.

# INDICATES UNOFFICIAL STATION AND DATA

WAZ520-240010-
EAST SLOPES OF WASHINGTON CASCADES

CITY            SKY/WX      TMP DP  RH  WIND    PRES   REMARKS
#BUMPING DAM    N/A         57  N/A N/A CALM    N/A
#CLE ELUM HS    N/A         64  52  65  CALM    29.83F
#CLE ELUM 2NW   N/A         63  52  67  CALM    N/A
#CLE ELUM LAKE  N/A         59  53  80  S1      29.77S
#CLIFFDEL 2NW   N/A         62  51  67  CALM    N/A
#GLENWOOD       N/A         64  58  81  CALM    29.80S
#MANASTASH CYN  N/A         63  50  62  CALM    29.88S
#NELSON         N/A         61  55  81  CALM    29.81F
#NELSON 3SW     N/A         61  53  75  CALM    29.98F
#NILE           N/A         64  56  75  CALM    29.09R
#SNOWDEN        N/A         65  41  41  NW1     N/A
#TEANAWAY 4NE   N/A         64  56  75  CALM    N/A
#TROUT LAKE 1NE N/A         63  55  75  SW1     29.81R
$$

WAZ521-240010-
SIMCOE HIGHLANDS

CITY            SKY/WX      TMP DP  RH  WIND    PRES   REMARKS
#BICKLETON HS   N/A         66  46  48  NW7     29.97S
#CENTERVILLE 4W N/A         71  49  46  N3      29.60F
#CENTERVILLE 1SWN/A         71  50  47  CALM    29.75F
#GOLDENDALE     N/A         71  49  46  S2      N/A
#GOLDENDALE 1NE N/A         71  45  39  CALM    N/A
#GOLDENDALE 1S  N/A         71  52  51  CALM    29.82F
#GOLDENDALE 5WNWN/A         71  51  49  W5      29.75F
#GOODNOE HILLS  N/A         77  51  40  NW6     29.74F
#LYLE 6NE       N/A         66  53  63  CALM    29.76F
$$

WAZ026-240010-
KITTITAS VALLEY

CITY            SKY/WX      TMP DP  RH  WIND    PRES   REMARKS
ELLENSBURG AP   LGT RAIN    70  53  55  SW3     29.85F
#ELLENSBURG CWU N/A         67  54  63  CALM    29.77S
#ELLENSBURG 3NE N/A         66  57  73  NE1     29.86F
#ELLENSBURG     N/A         70  59  68  CALM    N/A
#KITTITAS 3S    N/A         65  58  78  CALM    29.78S
#THORP 6N       N/A         66  51  58  E1      29.81F
$$

WAZ027-240010-
YAKIMA VALLEY

CITY            SKY/WX      TMP DP  RH  WIND    PRES   REMARKS
SUNNYSIDE AP    LGT RAIN    72  59  64  N6      29.81F
YAKIMA AIRPORT  LGT RAIN    73  51  46  CALM    29.84R
YAKIMA-VAGABOND LGT RAIN    73  50  44  W2      29.85S
#COWICHE 1N     N/A         69  53  57  NW1     30.02S
#DONALD 2NE     N/A         70  58  66  CALM    30.15F
#GRANDVIEW      N/A         74  57  55  CALM    29.78F
#MABTON         N/A         74  57  55  W3      29.81S
#MOXEE 2E       N/A         69  49  49  CALM    29.78R
#NACHES 2SW     N/A         70  59  68  CALM    29.88S
#OUTLOOK DOT    N/A         N/A N/A N/A N2      N/A
#SELAH 8E       N/A         70  49  47  S7      N/A
#TERRACE HTS    N/A         70  55  59  CALM    29.76R
#TOPPENISH      N/A         72  58  61  CALM    29.71S
#WAPATO 4NE     N/A         70  58  66  CALM    30.15F
#WEST VALLEY    N/A         71  54  55  CALM    29.77S
#W YAKIMA       N/A         70  59  68  CALM    29.78S
#WHITE SWAN 5E  N/A         72  57  59  W1      29.79S
#WILEY CITY 3W  N/A         67  46  47  CALM    29.83F
$$

WAZ028-240010-
LOWER COLUMBIA BASIN...WASHINGTON

CITY            SKY/WX      TMP DP  RH  WIND    PRES   REMARKS
PASCO           CLOUDY      78  57  48  N3      29.80F
PROSSER AWOS    N/A         75  59  58  N1      29.83S
RICHLAND AWOS   CLOUDY      79  50  36  NE3     29.80S
#BASIN CITY 5SW N/A         72  64  76  CALM    29.82R
#BENTON CITY    N/A         77  55  47  CALM    29.68S
#CONNELL 5N     N/A         76  52  43  SW1     29.78F
#CONNELL 5NW    N/A         75  56  52  CALM    29.75R
#ELTOPIA        N/A         77  59  54  CALM    29.74F
#ELTOPIA 6NW    N/A         76  59  56  CALM    28.79S
#KENNEWICK 3S   N/A         74  61  64  CALM    29.78S
#PASCO-BROADMOORN/A         79  58  49  NE1     29.66F
#PATERSON       N/A         77  55  47  CALM    29.75F
#PROSSER        N/A         77  53  43  N2      29.77S
#SAGEMOOR 2W    N/A         76  58  54  CALM    29.65S
#TOUCHET 2S     N/A         80  59  49  CALM    29.75F
#WEST PASCO     N/A         78  58  50  CALM    29.77F
$$

WAZ029-240010-
FOOTHILLS OF THE BLUES...WASHINGTON

CITY            SKY/WX      TMP DP  RH  WIND    PRES   REMARKS
WALLA WALLA AP  CLOUDY      81  53  38  CALM    29.83F
#DAYTON SCHOOL  N/A         79  50  36  SE1     29.84F
#LOWDEN 2SE     N/A         81  58  46  CALM    29.75F
#PLEASANT VIEW 1N/A         78  50  38  SW6     29.81F
#PRESCOTT       N/A         80  60  51  CALM    29.76F
#SUDBURY        N/A         83  N/A N/A CALM    N/A
#WHITMAN COLLEGEN/A         80  59  49  CALM    29.81F
#WAITSBURG 8N   N/A         78  38  24  CALM    29.74F
#WALLA WALLA 5E N/A         68  59  73  W7      N/A
#WALLA WALLA U  N/A         82  60  47  CALM    29.76F
#WHITMAN MISSIONN/A         80  61  52  CALM    29.78F
$$

WAZ030-240010-
BLUE MOUNTAINS...WASHINGTON

CITY            SKY/WX      TMP DP  RH  WIND    PRES   REMARKS
$$

ORZ009-041-WAZ024-240010-
COLUMBIA RIVER GORGE

CITY            SKY/WX      TMP DP  RH  WIND    PRES   REMARKS
HOOD RIVER AP   LGT RAIN    70  54  57  NW3     29.83F
THE DALLES AP   CLOUDY      71  53  53  NW10    29.79F
#ARLINGTON AIRPON/A         75  52  45  W3      29.95S
#ARLINGTON HS   N/A         78  58  50  CALM    29.66F
#MARYHILL 2W    N/A         71  54  55  CALM    N/A
#MOSIER 1S      N/A         67  48  50  CALM    29.85S
#MURDOCK        N/A         72  57  59  NW14    29.79F
#RUFUS DOT      N/A         73  55  53  W14     N/A

$$

ORZ510-240010-
NORTH CENTRAL OREGON

CITY            SKY/WX      TMP DP  RH  WIND    PRES   REMARKS
#CHENOWITH 1W   N/A         64  50  60  NW16    N/A
#COW CYN RST AREN/A         74  46  37  SW6     N/A
#DUFUR 9E       N/A         66  49  54  NW6     29.81F
#GRASS VALLEY   N/A         71  48  44  NE3     N/A
#GRASS VALLEY 1SN/A         73  49  43  CALM    29.79F
#KENT DOT       N/A         73  46  38  NW6     N/A
#MAUPIN SCHOOL  N/A         77  50  39  N1      28.66F
#MORO SCHOOL    N/A         71  55  57  CALM    29.85F
#SHANIKO 5WSW   N/A         73  45  37  S8      N/A
#SHANIKO 4NW    N/A         72  43  35  SW2     29.91S
#TYGH VALLEY 2NEN/A         76  52  43  CALM    29.74F
#WAPANITIA AIRPON/A         74  47  38  N2      29.76F
#WASCO DOT      N/A         72  53  51  W6      N/A
#WASCO AIRPORT  N/A         72  48  43  NW2     N/A
#WASCO 5NE      N/A         73  51  46  NW2     29.76F
$$

ORZ511-240010-
CENTRAL OREGON

CITY            SKY/WX      TMP DP  RH  WIND    PRES   REMARKS
BEND AIRPORT    CLOUDY      75  41  29  SW10    29.90F
MADRAS AIRPORT  PTCLDY      79  48  34  S8      29.85F
REDMOND AIRPORT CLOUDY      77  41  28  S14     29.86F
#BEND 6E        N/A         74  39  28  CALM    29.68F
#BEND 1SW       N/A         74  44  34  S3      N/A
#BEND-AWBREY    N/A         74  46  37  N5      29.73F
#BEND-KIM LN    N/A         74  48  40  S2      29.87F
#CROOKED RVR RANN/A         79  48  34  W9      29.71F
#CULVER         N/A         78  47  34  S7      29.80F
#LAKE BILLY CHINN/A         80   7   6  CALM    29.85F
#POWELL BUTTE 3EN/A         76  44  32  S8      N/A
#POWELL BUTTE   N/A         76  45  33  W6      29.54F
#PRINEVILLE 3N  N/A         74  52  46  CALM    29.70F


ORZ509-240010-
EAST SLOPES OF OREGON CASCADES

CITY            SKY/WX      TMP DP  RH  WIND    PRES   REMARKS
#BLUE BOX PASS  N/A         63   9  12  CALM    N/A
#CAMP SHERMAN   N/A         76  48  37  CALM    29.74F
#LA PINE DOT    N/A         71  35  27  S7      N/A
#LA PINE 4NW    N/A         70  45  41  SW2     29.81F
#LAVA BUTTE DOT N/A         70  40  34  SE6     N/A
#SISTERS AIRPOR N/A         77  55  47  VRB5    29.91S
#SISTERS ODOT   N/A         75  N/A N/A SE5     N/A
#SISTERS 1NW    N/A         76  43  31  W7      N/A
#SISTERS 3N     N/A         75  48  38  S3      N/A
#SUNRIVER       N/A         71  46  41  S2      29.65F
#SUNRIVER AP    N/A         69  46  44  SW5     29.72F
#SUTTLE LK DOT  N/A         65  49  56  CALM    N/A
#TUMALO 3W      N/A         74  47  38  S7      29.63S
#WANOGA BUTTE D N/A         60  44  55  W7      N/A

$$

ORZ044-240010-
LOWER COLUMBIA BASIN...OREGON

CITY            SKY/WX      TMP DP  RH  WIND    PRES   REMARKS
HERMISTON       CLOUDY      79  54  42  E3      29.80S
#BOARDMAN SCHOOLN/A         60  53  78  CALM    29.76F
#BOARDMAN 3W    N/A         79  59  50  NE3     29.47F
#BOARDMAN 8SW   N/A         81  53  38  CALM    29.76F
#ECHO 8SW       N/A         79  54  42  SE5     29.78S
#IONE SCHOOL    N/A         80  53  39  N2      29.80F
#IRRIGON 4NW    N/A         80  53  39  NE2     N/A
#UMATILLA       N/A         82  52  35  CALM    29.76F
$$

ORZ507-240010-
NORTHERN FOOTHILLS OF THE BLUES

CITY            SKY/WX      TMP DP  RH  WIND    PRES   REMARKS
PENDLETON AIRPT CLOUDY      78  54  43  N6      29.83F
#ADAMS 3WNW     N/A         77  62  60  N3      29.75F
#ATHENA         N/A         75  62  64  E2      29.79F
#HELIX SCHOOL   N/A         75  60  60  NE5     29.77F
#HELIX 3N       N/A         74  57  55  NE9     29.83F
#HELIX 6SW      N/A         77  59  54  N3      29.83F
#HOLDMAN 5SE    N/A         78  54  43  N2      29.84F
#HOLDMAN 6E     N/A         77  53  43  SE3     29.59F
#M-F GROVE ELEM N/A         77  60  56  CALM    29.81F
#M-FREEWATER 5SEN/A         77  62  60  CALM    29.83F
#PENDLETON DNTN N/A         79  53  41  CALM    29.82F
#PDT AQUATIC CTRN/A         78  58  50  N2      29.82S
#PENDLETON 5NE  N/A         80  60  51  N5      29.80F
#PDT SUNRIDGE   N/A         80  58  47  CALM    29.82F
#PENDLETON 7NW  N/A         76  58  54  CALM    25.35S
#PILOT ROCK     N/A         78  53  42  N2      29.85F
#TUTUILLA       N/A         78  56  47  N3      29.78F
#UMAPINE 2E     N/A         79  63  58  E1      29.77F

$$

ORZ508-240010-
SOUTHERN FOOTHILLS OF THE BLUES

CITY            SKY/WX      TMP DP  RH  WIND    PRES   REMARKS
LEXINGTON       CLOUDY      81  52  37  N8      29.84F
#AJAX           N/A         74  44  34  N7      29.80F
#CONDON SCHOOL  N/A         76  51  42  CALM    29.85S
#CONDON 5W      N/A         73  47  40  SW5     29.88F
#FOSSIL SCHOOL  N/A         77  47  35  SW6     29.85F
#HEPPNER 4NE    N/A         75  53  46  N5      29.75F
#LEXINGTON 2SE  N/A         81  54  39  N3      29.77F
#MIKKALO        N/A         75  46  36  N2      29.84F
#OLEX 4N        N/A         76  51  42  CALM    29.80F
#RUGGS 5NE      N/A         76  51  42  N7      30.04F
#RUGGS 2SW      N/A         76  52  43  N6      29.75F

$$

ORZ502-503-240010-
BLUE MOUNTAINS

CITY            SKY/WX      TMP DP  RH  WIND    PRES   REMARKS
MEACHAM         MOCLDY      76  50  40  CALM    29.95F
#BATTLE MTN DOT N/A         72  48  43  S3      N/A
#HARDMAN 10S    N/A         72  46  39  SE5     30.02F
#HEPPNER 15SE   N/A         76  48  37  CALM    29.86F
#LADD CYN SMT   N/A         75  42  31  SE16    N/A
#LADD CREEK ODOTN/A         78  49  36  S7      N/A
#N POWDER DOT   N/A         77  48  36  S17     N/A
#PIKES PEAK     N/A         70  56  61  N2      27.99S
#TOLLGATE       N/A         65  53  65  CALM    29.96F
#TROY SCHOOL    N/A         80  62  54  CALM    29.63F
#UKIAH          N/A         79  49  35  CALM    29.80F
#WESTON 4E      N/A         72  58  61  CALM    29.73F
$$

ORZ505-240010-
JOHN DAY BASIN

CITY            SKY/WX      TMP DP  RH  WIND    PRES   REMARKS
JOHN DAY        MOCLDY      80  40  24  SW8     29.94F
#JOHN DAY KJDY  N/A         78  47  34  CALM    30.05R
#MONUMENT HS    N/A         83  45  26  W1      29.85F
#MT. VERNON 5SE N/A         76  40  27  S6      29.91F
#WINLOCK        N/A         76  54  46  CALM    29.98F
$$

ORZ506-240010-
OCHOCO AND JOHN DAY HIGHLANDS

CITY            SKY/WX      TMP DP  RH  WIND    PRES   REMARKS
#BUCK CREEK DOT N/A         75  45  34  S2      N/A
#HORSE RIDGE DO N/A         73  40  30  S13     N/A
#KEYES SMT DOT  N/A         71  39  31  S7      N/A
#PAULINA SCHOOL N/A         74  41  30  CALM    29.95F
#PINE MTN OBS   N/A         61  39  44  S16G25  N/A
#PRAIRIE CITY   N/A         76  49  39  CALM    29.75S
#SENECA 9NW     N/A         73  40  30  NW2     29.80F
$$

ORZ049-240010-
GRANDE RONDE VALLEY

CITY            SKY/WX      TMP DP  RH  WIND    PRES   REMARKS
LA GRANDE       CLOUDY      81  48  32  S15     29.89F
#COVE           N/A         78  54  43  SE1     29.83F
#COVE SCHOOL    N/A         78  50  38  E7      29.89F
#COVE 6NW       N/A         76  54  46  CALM    29.83F
#ELGIN 3N       N/A         77  49  37  CALM    29.64F
#ELGIN 1E       N/A         77  55  47  CALM    N/A
#IMBLER SCHOOL  N/A         76  53  45  SE5     29.86F
#LADD CYN DOT   N/A         79  48  34  SE8     N/A
#LA GRANDE ELEM N/A         78  52  40  S8      29.88F
#UNION 1S       N/A         80  51  36  S8      29.69F
$$

ORZ050-240010-
WALLOWA COUNTY

CITY            SKY/WX      TMP DP  RH  WIND    PRES   REMARKS
JOSEPH AIRPORT  CLOUDY      81  28  14  NW5     29.97F
#ENTERPRISE AP  N/A         79  41  26  W5      29.90F
#ENTERPRISE HS  N/A         78  51  39  W1      29.93F
#IMNAHA SCHOOL  N/A         84  42  23  SW8     29.75F
#IMNAHA 10S     N/A         82  46  28  SW8     29.90F
#JOSEPH 3N      N/A         78  46  32  SW8     29.98F
#JOSEPH 3W      N/A         74  32  21  CALM    29.85F
#LOSTINE        N/A         75  60  60  CALM    29.60F
#MT HOWARD 8000 N/A         58  35  42  SW3     30.21F
#PROMISE 1S     N/A         70  56  61  SE2     29.91F
#SHEEP RDG 7000 N/A         62  33  34  CALM    29.80F
#WALLOWA SCHOOL N/A         75  58  56  CALM    30.68F



$$



USA.gov is the U.S. government's official web portal to all federal, state and local government web resources and services.